TimePDT,TemperatureF,Dew PointF,Humidity,Sea Level PressureIn,VisibilityMPH,Wind Direction,Wind SpeedMPH,Gust SpeedMPH,PrecipitationIn,Events,Conditions,WindDirDegrees,DateUTC
12:53 AM,50.0,45.0,83,30.03,10.0,Calm,Calm,-,N/A,,Clear,0,2012-09-18 07:53:00
1:53 AM,50.0,45.0,83,30.03,10.0,Calm,Calm,-,N/A,,Clear,0,2012-09-18 08:53:00
2:53 AM,50.0,44.1,80,30.03,10.0,Calm,Calm,-,N/A,,Clear,0,2012-09-18 09:53:00
3:53 AM,50.0,44.1,80,30.03,10.0,Calm,Calm,-,N/A,,Clear,0,2012-09-18 10:53:00
4:53 AM,50.0,44.1,80,30.03,10.0,Calm,Calm,-,N/A,,Clear,0,2012-09-18 11:53:00
5:53 AM,50.0,44.1,80,30.03,10.0,Calm,Calm,-,N/A,,Clear,0,2012-09-18 12:53:00
6:53 AM,55.9,48.0,75,30.04,10.0,Calm,Calm,-,N/A,,Clear,0,2012-09-18 13:53:00
7:53 AM,55.0,48.0,77,30.05,10.0,Calm,Calm,-,N/A,,Clear,0,2012-09-18 14:53:00
8:53 AM,57.9,48.0,70,30.06,10.0,Calm,Calm,-,N/A,,Clear,0,2012-09-18 15:53:00
9:53 AM,66.0,50.0,56,30.06,10.0,NNW,5.8,-,N/A,,Clear,340,2012-09-18 16:53:00
10:53 AM,69.1,48.9,49,30.07,10.0,North,5.8,-,N/A,,Clear,360,2012-09-18 17:53:00
11:53 AM,71.1,48.0,44,30.07,10.0,North,6.9,-,N/A,,Clear,360,2012-09-18 18:53:00
12:53 PM,70.0,50.0,49,30.06,10.0,SE,4.6,-,N/A,,Clear,130,2012-09-18 19:53:00
1:53 PM,70.0,51.1,51,30.06,10.0,ESE,3.5,-,N/A,,Clear,110,2012-09-18 20:53:00
2:53 PM,72.0,51.1,48,30.04,10.0,ESE,3.5,-,N/A,,Clear,110,2012-09-18 21:53:00
3:53 PM,73.9,50.0,43,30.04,10.0,SSW,5.8,-,N/A,,Clear,210,2012-09-18 22:53:00
4:53 PM,70.0,50.0,49,30.03,10.0,Calm,Calm,-,N/A,,Clear,0,2012-09-18 23:53:00
5:53 PM,72.0,50.0,46,30.03,10.0,Calm,Calm,-,N/A,,Clear,0,2012-09-19 00:53:00
6:53 PM,64.0,50.0,60,30.03,10.0,WSW,4.6,-,N/A,,Clear,240,2012-09-19 01:53:00
7:53 PM,61.0,48.0,62,30.04,10.0,Calm,Calm,-,N/A,,Clear,0,2012-09-19 02:53:00
8:53 PM,55.0,46.9,74,30.05,4.0,Calm,Calm,-,N/A,,Haze,0,2012-09-19 03:53:00
9:53 PM,52.0,46.9,83,30.06,9.0,Calm,Calm,-,N/A,,Clear,0,2012-09-19 04:53:00
10:02 PM,51.8,46.4,82,30.05,2.5,Calm,Calm,-,N/A,,Haze,0,2012-09-19 05:02:00
10:11 PM,50.0,46.4,87,30.06,10.0,Calm,Calm,-,N/A,,Clear,0,2012-09-19 05:11:00
10:53 PM,51.1,48.0,89,30.07,10.0,Calm,Calm,-,N/A,,Clear,0,2012-09-19 05:53:00
11:53 PM,48.9,46.9,93,30.08,7.0,Calm,Calm,-,N/A,,Clear,0,2012-09-19 06:53:00